Weather History for Concordia, KS

Change the Weather History Date:

Friday, August 1, 2014

  Actual Average Record
Temperature  
Mean Temperature 74 °F 79 °F  
Max Temperature 87 °F 90 °F 106 °F (1991)
Min Temperature 60 °F 67 °F 50 °F (1898)
Degree Days  
Heating Degree Days 0 0  
Month to date heating degree days 0 0  
Since 1 June heating degree days 3 13  
Since 1 July heating degree days 2 0  
Cooling Degree Days 9 14  
Month to date cooling degree days 9 14  
Year to date cooling degree days 833 804  
Since 1 June cooling degree days 658 715  
Growing Degree Days 24 (Base 50)    
Moisture  
Dew Point 58 °F    
Average Humidity 61    
Maximum Humidity 90    
Minimum Humidity 31    
Precipitation  
Precipitation 0.00 in 0.11 in 2.24 in (1903)
Month to date precipitation 0.00 0.11  
Year to date precipitation 13.67 18.07  
Snow  
Snow 0.00 in 0.00 in T in (1954)
Month to date snowfall 0.0 0.0  
Year to date snowfall 16.9 13.7  
Since 1 July snowfall 0.0 0.0  
Snow Depth 0.00 in    
Sea Level Pressure  
Sea Level Pressure 30.01 in    
Wind  
Wind Speed 9 mph (NNW)    
Max Wind Speed 23 mph    
Max Gust Speed 30 mph    
Visibility 10 miles    
Events      
T = Trace of Precipitation, MM = Missing Value Source: NWS Daily Summary

Daily Weather History Graph

Daily Weather History Graph

Search for Another Location

Airport:

Trip Planner

Search our weather history database for the weather conditions in past years. The results will help you decide how hot, cold, wet, or windy it might be!

Date:

Astronomy

Aug. 01, 2014 Rise Set
Actual Time 6:30 AM CDT 8:43 PM CDT
Civil Twilight 6:00 AM CDT 9:13 PM CDT
Nautical Twilight 5:23 AM CDT 9:49 PM CDT
Astronomical Twilight 4:42 AM CDT 10:30 PM CDT
Moon 11:53 AM CDT 11:30 PM CDT
Length of Visible Light 15h 13m
Length of Day
14h 13m
Waxing Crescent, 28% of the Moon is Illuminated
Aug 1
Waxing Crescent
Aug 3
First Quarter
Aug 10
Full
Aug 17
Last Quarter
Aug 25
New

Hourly Weather History & Observations

Time (CDT) Temp. Heat Index Dew Point Humidity Pressure Visibility Wind Dir Wind Speed Gust Speed Precip Events Conditions
12:55 AM 69.1 °F - 54.0 °F 58% 30.01 in 10.0 mi South 13.8 mph - N/A   Partly Cloudy
1:55 AM 68.0 °F - 55.0 °F 63% 29.99 in 10.0 mi SSW 11.5 mph - N/A   Clear
2:55 AM 68.0 °F - 55.4 °F 64% 30.02 in 10.0 mi SW 9.2 mph - N/A   Clear
3:55 AM 68.0 °F - 55.0 °F 63% 29.98 in 10.0 mi SW 8.1 mph - N/A   Clear
4:55 AM 64.9 °F - 55.9 °F 73% 29.98 in 10.0 mi West 6.9 mph - N/A   Clear
5:55 AM 61.0 °F - 55.9 °F 83% 29.99 in 10.0 mi Calm Calm - N/A   Clear
6:55 AM 61.0 °F - 57.0 °F 87% 29.99 in 10.0 mi West 4.6 mph - N/A   Clear
7:55 AM 64.9 °F - 57.9 °F 78% 30.01 in 10.0 mi NW 4.6 mph - N/A   Clear
8:55 AM 69.1 °F - 60.1 °F 73% 30.02 in 10.0 mi NW 5.8 mph - N/A   Clear
9:55 AM 75.0 °F - 62.1 °F 64% 30.02 in 10.0 mi NNW 5.8 mph - N/A   Clear
10:55 AM 80.1 °F 80.7 °F 59.0 °F 48% 30.03 in 10.0 mi North 10.4 mph - N/A   Clear
11:55 AM 82.9 °F 82.8 °F 59.0 °F 44% 30.02 in 10.0 mi North 11.5 mph - N/A   Clear
12:55 PM 84.2 °F 82.8 °F 53.6 °F 35% 30.07 in 10.0 mi North 13.8 mph 29.9 mph N/A   Clear
1:55 PM 84.9 °F 83.6 °F 55.0 °F 36% 30.02 in 10.0 mi North 15.0 mph 23.0 mph N/A   Clear
2:55 PM 84.9 °F - 51.1 °F 31% 30.02 in 10.0 mi NNW 17.3 mph 27.6 mph N/A   Clear
3:55 PM 87.1 °F 84.9 °F 53.1 °F 31% 30.01 in 10.0 mi North 13.8 mph 21.9 mph N/A   Clear
4:55 PM 86.0 °F 84.9 °F 57.2 °F 37% 30.05 in 10.0 mi NNE 10.4 mph 21.9 mph N/A   Clear
5:55 PM 84.9 °F 84.4 °F 59.0 °F 41% 30.01 in 10.0 mi NNE 13.8 mph - N/A   Clear
6:55 PM 82.9 °F 82.8 °F 59.0 °F 44% 30.01 in 10.0 mi NNE 11.5 mph - N/A   Clear
7:55 PM 81.0 °F 81.9 °F 62.1 °F 52% 30.01 in 10.0 mi North 8.1 mph - N/A   Clear
8:55 PM 75.0 °F - 63.0 °F 66% 30.01 in 10.0 mi North 6.9 mph - N/A   Clear
9:55 PM 73.9 °F - 64.0 °F 71% 30.02 in 10.0 mi North 6.9 mph - N/A   Clear
10:55 PM 72.0 °F - 64.0 °F 76% 30.04 in 10.0 mi North 5.8 mph - N/A   Clear
11:55 PM 69.1 °F - 63.0 °F 81% 30.05 in 10.0 mi NE 5.8 mph - N/A   Clear